Location: Zagreb
(45.8150°N, 15.9819°E)
Time: 17:28:53
(UTC+01:00)

N. Korean satellite - Visible Passes

Search period start: 25 February 2020 00:00
Search period end: 06 March 2020 00:00
Orbit: 456 x 505 km, 97.2° (Epoch: 24 February)

Date Brightness Start Highest point End Pass type
(mag) Time Alt. Az. Time Alt. Az. Time Alt. Az.
25 Feb 6.6 05:59:39 10° N 06:03:22 68° WNW 06:07:01 10° SSW visible
25 Feb 10.7 18:14:05 10° W 18:14:18 10° W 18:14:30 10° W visible
26 Feb 7.3 05:34:08 10° NNE 05:37:49 57° E 05:41:26 10° S visible
27 Feb 8.9 05:08:55 10° NE 05:12:11 28° E 05:15:23 10° SSE visible
28 Feb 9.9 04:44:15 10° NE 04:46:26 15° E 04:48:35 10° SE visible
29 Feb 6.6 05:50:49 10° NNE 05:54:32 86° WNW 05:58:12 10° SSW visible
01 Mar 7.9 05:25:23 10° NNE 05:28:57 44° E 05:32:27 10° S visible
02 Mar 9.3 05:00:18 10° NE 05:03:16 22° E 05:06:11 10° SSE visible
03 Mar 10.1 04:36:06 10° ENE 04:37:29 12° E 04:38:51 10° ESE visible
04 Mar 6.9 05:41:58 10° NNE 05:45:40 74° ESE 05:49:17 10° S visible
05 Mar 8.5 05:16:38 10° NNE 05:20:03 35° E 05:23:23 10° SSE visible
